Regional Weather Roundup
Issued by NWS

Home | Current Version | Previous Version | Text Only | Print | Product List | Glossary On
Versions: 1 2 3 4 5 6 7 8 9 10 11 12 13 14 15 16 17 18 19 20 21 22 23 24 25 26 27 28 29 30 31 32 33 34 35 36 37 38 39 40 41 42 43 44 45 46 47 48 49 50
000
ASUS46 KSEW 031810
RWRWA

WASHINGTON REGIONAL WEATHER ROUNDUP
NATIONAL WEATHER SERVICE SEATTLE WA
1100 AM PDT THU SEP 03 2015

NOTE:"FAIR" INDICATES FEW OR NO CLOUDS BELOW 12,000 FEET WITH NO
SIGNIFICANT WEATHER AND/OR OBSTRUCTIONS TO VISIBILITY.

WAZ505-507>509-031900-
SEATTLE, TACOMA, EVERETT, AND VICINITY

CITY           SKY/WX    TMP DP  RH WIND       PRES   REMARKS
EVERETT        PTSUNNY   56  47  71 S10       30.02S
6HR MIN TEMP:  51; 6HR MAX TEMP:  57;

BOEING FIELD   PTSUNNY   62  49  62 S9        30.02F
6HR MIN TEMP:  55; 6HR MAX TEMP:  62;

RENTON         CLOUDY    61  48  62 VRB7      30.02S
6HR MIN TEMP:  53; 6HR MAX TEMP:  61;

SEATAC AIRPORT PTSUNNY   60  50  69 SW8       30.03S
6HR MIN TEMP:  52; 6HR MAX TEMP:  60;

JBLM-MCCHORD   MOSUNNY   61  47  58 S9        30.02S
6HR MIN TEMP:  47; 6HR MAX TEMP:  62;

PUYALLUP       FAIR      59  48  67 CALM      30.03S
BREMERTON      CLOUDY    55  52  88 S8        30.06S
6HR MIN TEMP:  37; 6HR MAX TEMP:  55;

JBLM-FT LEWIS  PTSUNNY   61  49  64 VRB6      30.01F
6HR MIN TEMP:  44; 6HR MAX TEMP:  61;

TACOMA NARROWS PTSUNNY   61  50  67 SW9       30.02F
6HR MIN TEMP:  51; 6HR MAX TEMP:  61;

$$

WAZ001-503-506-510-514-515-031900-
NORTH INTERIOR

CITY           SKY/WX    TMP DP  RH WIND       PRES   REMARKS
BELLINGHAM     LGT RAIN  54  52  94 W3        30.01R
6HR MIN TEMP:  52; 6HR MAX TEMP:  56; 6HR PCP:  0.14;

FRIDAY HARBOR  CLOUDY    54  50  86 SE6       30.02S
6HR MIN TEMP:  44; 6HR MAX TEMP:  54;

EASTSOUND      LGT RAIN  52  48  87 S6        30.00S
PORT ANGELES   CLOUDY    57  49  74 E3        30.00F
6HR MIN TEMP:  45; 6HR MAX TEMP:  57; 6HR PCP: TRACE;

PORT TOWNSEND  PTSUNNY   57  52  82 W7        30.01S
NAS WHIDBEY    CLOUDY    58  51  78 SE9       30.05R
6HR MIN TEMP:  49; 6HR MAX TEMP:  58;

ARLINGTON      PTSUNNY   59  48  67 S10       30.02S
6HR MIN TEMP:  46; 6HR MAX TEMP:  59;

BURLINGTON     MOSUNNY   59  50  72 S8G14     30.01S
$$

WAZ020-022-039-040-504-511-512-031900-
SOUTHWEST INTERIOR

CITY           SKY/WX    TMP DP  RH WIND       PRES   REMARKS
SHELTON        LGT RAIN  54  50  86 W10       30.01S
6HR MIN TEMP:  43; 6HR MAX TEMP:  58; 6HR PCP:  0.01;

OLYMPIA        PTSUNNY   62  48  60 S10       30.02F
6HR MIN TEMP:  45; 6HR MAX TEMP:  62;

CHEHALIS       SUNNY     63  52  67 VRB6      30.03F
KELSO          NOT AVBL
VANCOUVER      SUNNY     62  48  60 SE7       30.04F
6HR MIN TEMP:  47; 6HR MAX TEMP:  63;

SCAPPOOSE, OR  CLOUDY    60  49  66 VRB6      30.04F
6HR MIN TEMP:  44; 6HR MAX TEMP:  61;

PORTLAND, OR   MOSUNNY   62  50  64 NE6       30.05S
6HR MIN TEMP:  50; 6HR MAX TEMP:  63;

$$

WAZ021-516-517-031900-
WASHINGTON COAST

CITY           SKY/WX    TMP DP  RH WIND       PRES   REMARKS
FORKS          PTSUNNY   56  53  90 SE6       30.01S
6HR MIN TEMP:  50; 6HR MAX TEMP:  56; 6HR PCP:  0.31;

HOQUIAM        MOSUNNY   53  49  86 E7        30.04S
6HR MIN TEMP:  47; 6HR MAX TEMP:  53; 6HR PCP:  0.30;

ASTORIA, OR    CLOUDY    62  55  77 SW10      30.03S
6HR MIN TEMP:  46; 6HR MAX TEMP:  63;

$$

WAZ019-023-024-040-518-519-031900-
CASCADE MOUNTAINS AND COLUMBIA GORGE

CITY           SKY/WX    TMP DP  RH WIND       PRES   REMARKS
TROUTDALE, OR  SUNNY     62  50  64 N3        30.05S
6HR MIN TEMP:  48; 6HR MAX TEMP:  62;

THE DALLES, OR SUNNY     66  41  40 NW17      30.00S
6HR MIN TEMP:  50; 6HR MAX TEMP:  66;

$$

WAZ026-027-041>044-520-521-031900-
EAST SLOPES

CITY           SKY/WX    TMP DP  RH WIND       PRES   REMARKS
OMAK           SUNNY     64  33  31 N13       29.92S
6HR MIN TEMP:  39; 6HR MAX TEMP:  64;

WENATCHEE      SUNNY     65  31  28 NW17      29.93F
6HR MIN TEMP:  50; 6HR MAX TEMP:  65;

ELLENSBURG     SUNNY     62  36  37 NW22G30   29.96S
6HR MIN TEMP:  45; 6HR MAX TEMP:  62;

YAKIMA         SUNNY     64  36  35 VRB6      29.97F
6HR MIN TEMP:  40; 6HR MAX TEMP:  65;

$$

WAZ028-034-035-031900-
COLUMBIA BASIN

CITY           SKY/WX    TMP DP  RH WIND       PRES   REMARKS
EPHRATA        SUNNY     65  32  29 MISG      29.93S
6HR MIN TEMP:  47; 6HR MAX TEMP:  65;

MOSES LAKE     SUNNY     63  36  36 VRB3      29.95S
6HR MIN TEMP:  50; 6HR MAX TEMP:  64;

PASCO          SUNNY     66  38  35 CALM      29.98S
6HR MIN TEMP:  44; 6HR MAX TEMP:  66;

HERMISTON, OR  SUNNY     64  41  42 W8        29.98S
6HR MIN TEMP:  49; 6HR MAX TEMP:  65;

$$

WAZ036>038-031900-
NORTHEAST WASHINGTON

CITY           SKY/WX    TMP DP  RH WIND       PRES   REMARKS
SPOKANE GEIGER MOSUNNY   58  36  43 S6        29.96S
6HR MIN TEMP:  45; 6HR MAX TEMP:  58;

SPOKANE FELTS  MOSUNNY   59  38  45 W7        29.97R
6HR MIN TEMP:  50; 6HR MAX TEMP:  60;

FAIRCHILD AFB  SUNNY     58  34  40 VRB6      29.96R
6HR MIN TEMP:  43; 6HR MAX TEMP:  58; 6HR PCP: TRACE;

COEURDALENE,ID PTSUNNY   61  36  39 SW3       29.96S
6HR MIN TEMP:  48; 6HR MAX TEMP:  61;

DEER PARK      SUNNY     59  35  40 VRB7      29.96S
6HR MIN TEMP:  45; 6HR MAX TEMP:  60; 6HR PCP: TRACE;

$$

WAZ029>033-031900-
SOUTHEAST WASHINGTON

CITY           SKY/WX    TMP DP  RH WIND       PRES   REMARKS
PULLMAN        MOSUNNY   57  38  48 MISG      30.00S
6HR MIN TEMP:  48; 6HR MAX TEMP:  59;

LEWISTON, ID   CLOUDY    57  48  72 E9        29.98S
6HR MIN TEMP:  54; 6HR MAX TEMP:  60; 6HR PCP:  0.01;

WALLA WALLA    SUNNY     64  40  41 SW17G23   29.98F
6HR MIN TEMP:  51; 6HR MAX TEMP:  64;

PENDLETON, OR  MOSUNNY   62  35  36 W13       29.99S
6HR MIN TEMP:  50; 6HR MAX TEMP:  63;

$$



USA.gov is the U.S. government's official web portal to all federal, state and local government web resources and services.